AXM1560 WBKK-ZBAD

Flight info

Callsign AXM1560
Flight time N/A
Altitude 37000
Route ENBAX1F ENBAX M522 VINIK M754 AKOTA/N0449F380 A583 SABNO DCT LEGOD DCT BEKOL/K0832S1160 A461 YIN/K0824S1190 A461 BUBDA/K0820S1160 W56 REBIS/K0824S1190 W56 ORODO/K0809S1160 W62 KARVU/K0811S1190 W62 IGDID/K0804S1160 W62 TEKIL G212 BELAX BELAX6M
Aircraft A20N/M-V/N

Departure

Time 2026-04-23 08:35
Airport Kota Kinabalu International Airport (WBKK)

Arrival

Time N/A
Airport Beijing Daxing International Airport (ZBAD)
Time Latitude Longitude Altitude Speed Heading
2026-04-23 08:22 5.92131 116.05037 28 ft 0 kts 68°
2026-04-23 08:28 5.92123 116.05016 28 ft 4 kts 68°
2026-04-23 08:28 5.92113 116.04991 28 ft 4 kts 65°
2026-04-23 08:28 5.92099 116.04969 28 ft 4 kts 38°
2026-04-23 08:28 5.92077 116.04960 28 ft 3 kts 342°
2026-04-23 08:29 5.92070 116.04962 28 ft 0 kts 338°
2026-04-23 08:31 5.92083 116.04957 28 ft 6 kts 338°
2026-04-23 08:31 5.92137 116.04935 28 ft 12 kts 338°
2026-04-23 08:31 5.92240 116.04894 28 ft 19 kts 338°
2026-04-23 08:31 5.92370 116.04843 28 ft 20 kts 338°
2026-04-23 08:32 5.92392 116.04744 28 ft 15 kts 217°
2026-04-23 08:32 5.92292 116.04698 28 ft 17 kts 202°
2026-04-23 08:32 5.92177 116.04650 28 ft 19 kts 203°
2026-04-23 08:32 5.92054 116.04598 28 ft 20 kts 202°
2026-04-23 08:33 5.91919 116.04541 28 ft 22 kts 202°
2026-04-23 08:33 5.91790 116.04476 28 ft 17 kts 243°
2026-04-23 08:33 5.91791 116.04421 28 ft 0 kts 294°
2026-04-23 08:33 5.91793 116.04417 28 ft 4 kts 294°
2026-04-23 08:34 5.91821 116.04356 29 ft 14 kts 294°
2026-04-23 08:34 5.91893 116.04342 31 ft 14 kts 21°
2026-04-23 08:34 5.92103 116.04431 31 ft 64 kts 23°
2026-04-23 08:34 5.92712 116.04689 25 ft 123 kts 23°
2026-04-23 08:35 5.93647 116.05082 32 ft 166 kts 22°
2026-04-23 08:35 5.94765 116.05549 387 ft 178 kts 22°
2026-04-23 08:35 5.95970 116.06062 768 ft 197 kts 21°
2026-04-23 08:35 5.97314 116.06593 1150 ft 214 kts 21°
2026-04-23 08:36 5.98691 116.07125 1856 ft 215 kts 21°
2026-04-23 08:36 6.00081 116.07671 2593 ft 214 kts 22°
2026-04-23 08:36 6.01480 116.08231 3199 ft 218 kts 22°
2026-04-23 08:36 6.02902 116.08805 3769 ft 221 kts 22°
2026-04-23 08:37 6.04341 116.09389 4333 ft 225 kts 22°
2026-04-23 08:37 6.05801 116.09982 4868 ft 228 kts 23°
2026-04-23 08:37 6.07282 116.10582 5392 ft 231 kts 23°
2026-04-23 08:37 6.08781 116.11191 5888 ft 234 kts 23°
2026-04-23 08:38 6.10297 116.11806 6382 ft 236 kts 24°
2026-04-23 08:38 6.11829 116.12429 6815 ft 238 kts 23°
2026-04-23 08:38 6.13369 116.13055 7269 ft 240 kts 23°
2026-04-23 08:38 6.14900 116.13677 7693 ft 241 kts 23°
2026-04-23 08:39 6.16464 116.14312 8113 ft 244 kts 23°
2026-04-23 08:39 6.18072 116.14858 8519 ft 246 kts 11°
2026-04-23 08:39 6.19791 116.14926 8886 ft 249 kts 354°
2026-04-23 08:39 6.21550 116.14720 9088 ft 261 kts 354°
2026-04-23 08:40 6.23404 116.14513 9208 ft 275 kts 354°
2026-04-23 08:40 6.25350 116.14304 9334 ft 288 kts 354°
2026-04-23 08:40 6.27385 116.14088 9462 ft 300 kts 354°
2026-04-23 08:40 6.29477 116.13867 9778 ft 303 kts 354°
2026-04-23 08:41 6.31584 116.13645 10122 ft 304 kts 354°
2026-04-23 08:41 6.33725 116.13419 10240 ft 315 kts 354°
2026-04-23 08:41 6.35934 116.13188 10333 ft 325 kts 354°
2026-04-23 08:41 6.38216 116.12949 10420 ft 334 kts 354°
2026-04-23 08:42 6.40561 116.12702 10497 ft 343 kts 354°
2026-04-23 08:42 6.42959 116.12449 10574 ft 351 kts 354°
2026-04-23 08:42 6.45409 116.12190 10743 ft 355 kts 354°
2026-04-23 08:42 6.47871 116.11929 11087 ft 356 kts 354°
2026-04-23 08:43 6.50308 116.11671 11512 ft 358 kts 354°
2026-04-23 08:43 6.52798 116.11408 12015 ft 361 kts 354°
2026-04-23 08:43 6.55301 116.11143 12623 ft 363 kts 354°
2026-04-23 08:43 6.57826 116.10876 13285 ft 366 kts 354°
2026-04-23 08:44 6.60373 116.10607 13902 ft 369 kts 354°
2026-04-23 08:44 6.62935 116.10335 14468 ft 372 kts 354°
2026-04-23 08:44 6.65524 116.10061 15019 ft 375 kts 354°
2026-04-23 08:44 6.68133 116.09784 15574 ft 378 kts 354°
2026-04-23 08:45 6.70760 116.09506 16109 ft 381 kts 354°
2026-04-23 08:45 6.73417 116.09291 16633 ft 384 kts 360°
2026-04-23 08:45 6.76089 116.09403 17153 ft 386 kts
2026-04-23 08:45 6.78778 116.09605 17674 ft 389 kts
2026-04-23 08:46 6.81486 116.09799 18174 ft 392 kts
2026-04-23 08:46 6.84187 116.09990 18600 ft 394 kts
2026-04-23 08:46 6.86934 116.10183 19050 ft 396 kts
2026-04-23 08:46 6.89693 116.10377 19485 ft 399 kts
2026-04-23 08:47 6.92470 116.10573 19926 ft 401 kts
2026-04-23 08:47 6.95272 116.10771 20363 ft 404 kts
2026-04-23 08:47 6.98083 116.10970 20776 ft 406 kts
2026-04-23 08:47 7.00914 116.11170 21203 ft 409 kts
2026-04-23 08:48 7.03763 116.11371 21629 ft 411 kts
2026-04-23 08:48 7.06626 116.11574 22038 ft 414 kts
2026-04-23 08:48 7.09509 116.11778 22447 ft 417 kts
2026-04-23 08:48 7.12410 116.11983 22860 ft 419 kts
2026-04-23 08:49 7.15327 116.12189 23260 ft 422 kts
2026-04-23 08:49 7.18262 116.12397 23614 ft 424 kts
2026-04-23 08:49 7.21215 116.12606 23950 ft 426 kts
2026-04-23 08:49 7.24182 116.12817 24277 ft 429 kts
2026-04-23 08:50 7.27132 116.13026 24611 ft 431 kts
2026-04-23 08:50 7.30168 116.13241 24912 ft 433 kts
2026-04-23 08:50 7.33147 116.13452 25223 ft 435 kts
2026-04-23 08:50 7.36180 116.13667 25527 ft 438 kts
2026-04-23 08:51 7.39225 116.13883 25828 ft 440 kts
2026-04-23 08:51 7.42288 116.14100 26114 ft 442 kts
2026-04-23 08:51 7.45360 116.14317 26411 ft 444 kts
2026-04-23 08:51 7.48455 116.14536 26690 ft 447 kts
2026-04-23 08:52 7.51565 116.14757 26976 ft 449 kts
2026-04-23 08:52 7.54691 116.14978 27238 ft 451 kts
2026-04-23 08:52 7.57833 116.15201 27504 ft 453 kts
2026-04-23 08:52 7.60990 116.15425 27769 ft 455 kts
2026-04-23 08:53 7.64155 116.15650 28042 ft 457 kts
2026-04-23 08:53 7.67298 116.15873 28289 ft 459 kts
2026-04-23 08:53 7.70494 116.16099 28550 ft 461 kts
2026-04-23 08:53 7.73696 116.16326 28793 ft 463 kts
2026-04-23 08:54 7.76918 116.16555 29040 ft 464 kts
2026-04-23 08:54 7.80147 116.16785 29272 ft 466 kts
2026-04-23 08:54 7.83391 116.17015 29521 ft 468 kts
2026-04-23 08:54 7.86650 116.17246 29748 ft 470 kts
2026-04-23 08:55 7.89917 116.17478 29971 ft 471 kts
2026-04-23 08:55 7.93203 116.17712 30177 ft 473 kts
2026-04-23 08:55 7.96450 116.17943 30377 ft 475 kts
2026-04-23 08:55 7.99754 116.18178 30575 ft 477 kts
2026-04-23 08:56 8.03068 116.18414 30788 ft 479 kts
2026-04-23 08:56 8.06400 116.18651 31039 ft 479 kts
2026-04-23 08:56 8.09737 116.18888 31320 ft 479 kts
2026-04-23 08:56 8.13064 116.19124 31590 ft 479 kts
2026-04-23 08:57 8.16394 116.19360 31871 ft 479 kts
2026-04-23 08:57 8.19716 116.19598 32156 ft 478 kts
2026-04-23 08:57 8.23045 116.19848 32442 ft 478 kts
2026-04-23 08:57 8.26357 116.20104 32705 ft 477 kts
2026-04-23 08:58 8.29665 116.20359 32974 ft 477 kts
2026-04-23 08:58 8.32981 116.20615 33229 ft 477 kts
2026-04-23 08:58 8.36251 116.20866 33493 ft 476 kts
2026-04-23 08:58 8.39551 116.21118 33750 ft 476 kts
2026-04-23 08:59 8.42847 116.21370 33971 ft 475 kts
2026-04-23 08:59 8.46145 116.21622 34196 ft 474 kts
2026-04-23 08:59 8.49434 116.21874 34406 ft 474 kts
2026-04-23 08:59 8.52719 116.22125 34608 ft 473 kts
2026-04-23 09:00 8.56001 116.22376 34806 ft 473 kts
2026-04-23 09:00 8.59282 116.22628 35004 ft 472 kts
2026-04-23 09:00 8.62553 116.22878 35209 ft 471 kts
2026-04-23 09:00 8.65827 116.23140 35395 ft 471 kts
2026-04-23 09:01 8.69083 116.23512 35589 ft 470 kts
2026-04-23 09:01 8.72331 116.23934 35781 ft 470 kts
2026-04-23 09:01 8.75534 116.24353 35974 ft 469 kts
2026-04-23 09:01 8.78771 116.24765 36176 ft 468 kts
2026-04-23 09:02 8.82001 116.25168 36373 ft 467 kts
2026-04-23 09:02 8.85234 116.25564 36559 ft 466 kts
2026-04-23 09:02 8.88457 116.25957 36741 ft 466 kts
2026-04-23 09:02 8.91678 116.26349 36918 ft 465 kts
2026-04-23 09:03 8.94898 116.26740 37052 ft 465 kts
2026-04-23 09:03 8.98103 116.27130 37049 ft 464 kts
2026-04-23 09:03 9.04470 116.27905 37047 ft 463 kts
2026-04-23 09:04 9.10882 116.28686 37049 ft 464 kts
2026-04-23 09:04 9.17296 116.29468 37051 ft 463 kts
2026-04-23 09:05 9.23705 116.30249 37053 ft 463 kts
2026-04-23 09:05 9.30108 116.31030 37053 ft 463 kts
2026-04-23 09:06 9.36515 116.31811 37051 ft 463 kts
2026-04-23 09:06 9.42887 116.32589 37054 ft 463 kts
2026-04-23 09:07 9.49306 116.33372 37052 ft 463 kts
2026-04-23 09:07 9.55715 116.34154 37054 ft 463 kts
2026-04-23 09:08 9.62120 116.34937 37055 ft 463 kts
2026-04-23 09:08 9.68490 116.35715 37055 ft 464 kts
2026-04-23 09:09 9.74900 116.36499 37056 ft 464 kts
2026-04-23 09:09 9.81312 116.37283 37016 ft 464 kts
2026-04-23 09:10 9.90904 116.38456 36927 ft 464 kts
2026-04-23 09:11 9.97316 116.39241 36924 ft 464 kts
2026-04-23 09:11 10.03730 116.40027 36924 ft 464 kts
2026-04-23 09:12 10.09059 116.40679 36929 ft 464 kts
2026-04-23 09:12 10.15468 116.41464 36926 ft 464 kts
2026-04-23 09:13 10.21883 116.42251 36928 ft 464 kts
2026-04-23 09:13 10.28285 116.43036 36928 ft 464 kts
2026-04-23 09:14 10.34716 116.43825 36931 ft 464 kts
2026-04-23 09:14 10.41147 116.44614 36927 ft 464 kts
2026-04-23 09:15 10.47529 116.45398 36929 ft 465 kts
2026-04-23 09:15 10.53951 116.46187 36931 ft 465 kts
2026-04-23 09:16 10.60378 116.46977 36929 ft 465 kts
2026-04-23 09:16 10.66803 116.47767 36931 ft 465 kts
2026-04-23 09:17 10.73228 116.48557 36932 ft 465 kts
2026-04-23 09:17 10.79656 116.49347 36931 ft 464 kts
2026-04-23 09:18 10.86032 116.50132 36935 ft 465 kts
2026-04-23 09:18 10.92457 116.50923 36938 ft 465 kts
2026-04-23 09:19 10.98881 116.51714 36937 ft 465 kts
2026-04-23 09:19 11.05301 116.52505 36940 ft 465 kts
2026-04-23 09:20 11.11725 116.53297 36937 ft 465 kts
2026-04-23 09:20 11.18151 116.54090 36941 ft 465 kts
2026-04-23 09:21 11.24579 116.54883 36940 ft 465 kts
2026-04-23 09:21 11.31010 116.55677 36939 ft 465 kts
2026-04-23 09:22 11.37434 116.56471 36942 ft 465 kts
2026-04-23 09:22 11.43858 116.57265 36940 ft 465 kts
2026-04-23 09:23 11.50244 116.58054 36943 ft 465 kts
2026-04-23 09:23 11.56667 116.58849 36944 ft 464 kts
2026-04-23 09:24 11.63086 116.59643 36944 ft 465 kts
2026-04-23 09:24 11.69511 116.60439 36945 ft 464 kts
2026-04-23 09:25 11.75881 116.61228 36944 ft 464 kts
2026-04-23 09:25 11.82283 116.62021 36945 ft 463 kts
2026-04-23 09:26 11.88682 116.62815 36947 ft 463 kts
2026-04-23 09:26 11.95090 116.63609 36949 ft 463 kts
2026-04-23 09:27 12.01485 116.64403 36949 ft 463 kts
2026-04-23 09:27 12.07869 116.65196 36949 ft 462 kts
2026-04-23 09:28 12.14244 116.65988 36946 ft 461 kts
2026-04-23 09:28 12.20614 116.66779 36949 ft 461 kts
2026-04-23 09:29 12.26982 116.67571 36950 ft 460 kts
2026-04-23 09:29 12.33318 116.68360 36949 ft 460 kts
2026-04-23 09:30 12.39679 116.69151 36948 ft 460 kts
2026-04-23 09:30 12.46037 116.69944 36949 ft 460 kts
2026-04-23 09:31 12.52390 116.70735 36949 ft 460 kts
2026-04-23 09:31 12.58743 116.71527 36952 ft 459 kts
2026-04-23 09:32 12.65090 116.72319 36949 ft 459 kts
2026-04-23 09:32 12.71428 116.73110 36948 ft 459 kts
2026-04-23 09:33 12.77730 116.73897 36951 ft 458 kts
2026-04-23 09:33 12.84069 116.74689 36952 ft 458 kts
2026-04-23 09:34 12.90397 116.75479 36951 ft 457 kts
2026-04-23 09:34 12.96682 116.76265 36952 ft 457 kts
2026-04-23 09:35 13.03000 116.77055 36952 ft 456 kts
2026-04-23 09:35 13.09308 116.77844 36953 ft 456 kts
2026-04-23 09:36 13.15606 116.78633 36955 ft 456 kts
2026-04-23 09:36 13.21894 116.79422 36955 ft 455 kts
2026-04-23 09:37 13.28181 116.80210 36954 ft 455 kts
2026-04-23 09:37 13.34423 116.80993 36954 ft 454 kts
2026-04-23 09:38 13.40690 116.81779 36954 ft 454 kts
2026-04-23 09:38 13.46955 116.82566 36956 ft 453 kts
2026-04-23 09:39 13.53198 116.83351 36847 ft 449 kts
2026-04-23 09:39 13.59431 116.84134 36847 ft 453 kts
2026-04-23 09:40 13.65688 116.84921 36852 ft 451 kts
2026-04-23 09:40 13.71923 116.85706 36849 ft 451 kts
2026-04-23 09:41 13.78150 116.86490 36843 ft 451 kts
2026-04-23 09:41 13.84373 116.87273 36840 ft 450 kts
2026-04-23 09:42 13.90601 116.88058 36836 ft 450 kts
2026-04-23 09:42 13.96809 116.88841 36846 ft 450 kts
2026-04-23 09:43 14.03017 116.89624 36844 ft 449 kts
2026-04-23 09:43 14.09188 116.90403 36857 ft 449 kts
2026-04-23 09:44 14.15399 116.91188 36857 ft 450 kts
2026-04-23 09:44 14.21610 116.91973 36851 ft 449 kts
2026-04-23 09:45 14.27822 116.92759 36850 ft 450 kts
2026-04-23 09:45 14.34032 116.93545 36847 ft 449 kts
2026-04-23 09:46 14.40235 116.94330 36848 ft 449 kts
2026-04-23 09:46 14.46444 116.95117 36851 ft 449 kts
2026-04-23 09:47 14.52608 116.95898 36850 ft 449 kts
2026-04-23 09:47 14.58809 116.96684 36848 ft 449 kts
2026-04-23 09:48 14.65016 116.97472 36849 ft 449 kts
2026-04-23 09:48 14.71221 116.98260 36847 ft 449 kts
2026-04-23 09:49 14.77421 116.99048 36864 ft 449 kts
2026-04-23 09:49 14.83624 116.99836 36851 ft 449 kts
2026-04-23 09:50 14.89789 117.00620 36845 ft 449 kts
2026-04-23 09:50 14.95999 117.01411 36846 ft 449 kts
2026-04-23 09:51 15.02208 117.02201 36860 ft 449 kts
2026-04-23 09:51 15.08417 117.02992 36860 ft 449 kts
2026-04-23 09:52 15.14616 117.03783 36862 ft 449 kts
2026-04-23 09:52 15.20825 117.04575 36861 ft 449 kts
2026-04-23 09:53 15.26990 117.05362 36851 ft 449 kts
2026-04-23 09:53 15.33189 117.06153 36853 ft 449 kts
2026-04-23 09:54 15.39395 117.06946 36855 ft 449 kts
2026-04-23 09:54 15.45597 117.07739 36860 ft 448 kts
2026-04-23 09:55 15.51791 117.08532 36859 ft 448 kts
2026-04-23 09:55 15.57987 117.09325 36854 ft 448 kts
2026-04-23 09:56 15.64139 117.10113 36850 ft 448 kts
2026-04-23 09:56 15.70341 117.10908 36849 ft 448 kts
2026-04-23 09:57 15.76534 117.11703 36853 ft 448 kts
2026-04-23 09:57 15.82729 117.12498 36861 ft 448 kts
2026-04-23 09:58 15.88927 117.13294 36861 ft 448 kts
2026-04-23 09:58 15.95076 117.14085 36851 ft 448 kts
2026-04-23 09:59 16.01278 117.14882 36854 ft 448 kts
2026-04-23 09:59 16.07476 117.15680 36853 ft 449 kts
2026-04-23 10:00 16.13671 117.16478 36851 ft 449 kts
2026-04-23 10:00 16.18831 117.17142 36854 ft 449 kts
2026-04-23 10:01 16.25031 117.17942 36860 ft 449 kts
2026-04-23 10:01 16.31240 117.18743 36859 ft 450 kts
2026-04-23 10:02 16.37456 117.19545 36851 ft 450 kts
2026-04-23 10:02 16.43690 117.19988 36853 ft 449 kts 355°
2026-04-23 10:03 16.49770 117.18635 36848 ft 448 kts 338°
2026-04-23 10:03 16.55374 117.15795 36850 ft 448 kts 333°
2026-04-23 10:04 16.60931 117.12844 36849 ft 448 kts 333°
2026-04-23 10:04 16.66453 117.09909 36860 ft 449 kts 333°
2026-04-23 10:05 16.72015 117.06946 36868 ft 449 kts 333°
2026-04-23 10:05 16.77585 117.03977 36863 ft 449 kts 333°
2026-04-23 10:06 16.83149 117.01007 36868 ft 449 kts 333°
2026-04-23 10:06 16.88716 116.98035 36852 ft 449 kts 333°
2026-04-23 10:07 16.94269 116.95069 36857 ft 447 kts 332°
2026-04-23 10:07 16.99774 116.92126 36856 ft 448 kts 332°
2026-04-23 10:08 17.05348 116.89143 36861 ft 448 kts 332°
2026-04-23 10:08 17.10897 116.86173 36860 ft 448 kts 332°
2026-04-23 10:09 17.19184 116.81733 36865 ft 448 kts 332°
2026-04-23 10:09 17.24726 116.78761 36865 ft 447 kts 332°
2026-04-23 10:10 17.30265 116.75789 36862 ft 447 kts 332°
2026-04-23 10:10 17.35807 116.72813 36863 ft 447 kts 332°
2026-04-23 10:11 17.41343 116.69839 36859 ft 447 kts 332°
2026-04-23 10:11 17.46835 116.66886 36862 ft 446 kts 332°
2026-04-23 10:12 17.52359 116.63914 36862 ft 446 kts 332°
2026-04-23 10:12 17.57876 116.60943 36864 ft 446 kts 332°
2026-04-23 10:13 17.63395 116.57970 36863 ft 445 kts 332°
2026-04-23 10:13 17.68903 116.55000 36864 ft 445 kts 332°
2026-04-23 10:14 17.74406 116.52030 36864 ft 444 kts 332°
2026-04-23 10:14 17.79902 116.49064 36862 ft 444 kts 332°
2026-04-23 10:15 17.85394 116.46096 36860 ft 443 kts 332°
2026-04-23 10:15 17.90870 116.43135 36863 ft 443 kts 332°
2026-04-23 10:16 17.96316 116.40188 36863 ft 442 kts 332°
2026-04-23 10:16 18.01782 116.37228 36860 ft 442 kts 332°
2026-04-23 10:17 18.07248 116.34267 36859 ft 441 kts 332°
2026-04-23 10:17 18.12705 116.31308 36861 ft 441 kts 332°
2026-04-23 10:18 18.18159 116.28348 36859 ft 441 kts 332°
2026-04-23 10:18 18.23610 116.25388 36862 ft 440 kts 332°
2026-04-23 10:19 18.29023 116.22447 36860 ft 440 kts 331°
2026-04-23 10:19 18.34468 116.19486 36854 ft 440 kts 331°
2026-04-23 10:20 18.39912 116.16524 36861 ft 440 kts 331°
2026-04-23 10:20 18.45351 116.13562 36861 ft 440 kts 331°
2026-04-23 10:21 18.50789 116.10599 36858 ft 439 kts 331°
2026-04-23 10:21 18.56219 116.07638 36859 ft 439 kts 331°
2026-04-23 10:22 18.61648 116.04676 36860 ft 439 kts 331°
2026-04-23 10:22 18.67073 116.01713 36859 ft 439 kts 331°
2026-04-23 10:23 18.72464 115.98766 36855 ft 439 kts 331°
2026-04-23 10:23 18.77897 115.95795 36856 ft 439 kts 331°
2026-04-23 10:24 18.83328 115.92823 36853 ft 439 kts 331°
2026-04-23 10:24 18.88750 115.89853 36856 ft 439 kts 331°
2026-04-23 10:25 18.94182 115.86876 36858 ft 439 kts 330°
2026-04-23 10:25 18.99571 115.83928 36856 ft 439 kts 332°
2026-04-23 10:26 19.05138 115.81245 36858 ft 440 kts 334°
2026-04-23 10:26 19.10746 115.78623 36856 ft 440 kts 334°
2026-04-23 10:27 19.16328 115.75964 36858 ft 440 kts 334°
2026-04-23 10:27 19.21908 115.73287 36858 ft 440 kts 333°
2026-04-23 10:28 19.27478 115.70611 36860 ft 439 kts 333°
2026-04-23 10:28 19.33050 115.67933 36858 ft 439 kts 333°
2026-04-23 10:29 19.38584 115.65271 36857 ft 439 kts 333°
2026-04-23 10:29 19.44145 115.62594 36860 ft 439 kts 333°
2026-04-23 10:30 19.49707 115.59915 36860 ft 439 kts 333°
2026-04-23 10:30 19.55265 115.57235 36860 ft 438 kts 333°
2026-04-23 10:31 19.60811 115.54560 36860 ft 438 kts 333°
2026-04-23 10:31 19.66372 115.51875 36856 ft 438 kts 333°
2026-04-23 10:32 19.71918 115.49195 36854 ft 438 kts 333°
2026-04-23 10:32 19.77466 115.46512 36855 ft 438 kts 333°
2026-04-23 10:33 19.82976 115.43846 36851 ft 438 kts 333°
2026-04-23 10:33 19.88539 115.41153 36860 ft 441 kts 333°
2026-04-23 10:34 19.94177 115.38419 36859 ft 446 kts 333°
2026-04-23 10:34 19.99811 115.35686 36858 ft 444 kts 333°
2026-04-23 10:35 20.05402 115.32971 36859 ft 445 kts 333°
2026-04-23 10:35 20.11045 115.30230 36858 ft 445 kts 332°
2026-04-23 10:36 20.16684 115.27488 36853 ft 445 kts 332°
2026-04-23 10:36 20.22334 115.24739 36858 ft 446 kts 332°
2026-04-23 10:37 20.27941 115.22008 36859 ft 446 kts 332°
2026-04-23 10:37 20.33591 115.19254 36861 ft 446 kts 332°
2026-04-23 10:38 20.39234 115.16502 36864 ft 446 kts 332°
2026-04-23 10:38 20.44887 115.13742 36861 ft 447 kts 332°
2026-04-23 10:39 20.50543 115.10979 36862 ft 447 kts 332°
2026-04-23 10:39 20.56202 115.08212 36867 ft 447 kts 332°
2026-04-23 10:40 20.61856 115.05445 36857 ft 447 kts 332°
2026-04-23 10:40 20.67485 115.02688 36858 ft 447 kts 332°
2026-04-23 10:41 20.73147 114.99912 36854 ft 447 kts 332°
2026-04-23 10:41 20.78806 114.97136 36863 ft 447 kts 332°
2026-04-23 10:42 20.84467 114.94357 36867 ft 447 kts 332°
2026-04-23 10:42 20.90119 114.91580 36874 ft 447 kts 332°
2026-04-23 10:43 20.95778 114.88804 36859 ft 447 kts 332°
2026-04-23 10:43 21.01435 114.86144 36865 ft 447 kts 333°
2026-04-23 10:44 21.07136 114.83477 36861 ft 447 kts 333°
2026-04-23 10:44 21.12826 114.80800 36851 ft 446 kts 333°
2026-04-23 10:45 21.18513 114.78117 36853 ft 446 kts 333°
2026-04-23 10:45 21.24196 114.75433 36853 ft 446 kts 332°
2026-04-23 10:46 21.29872 114.72750 36846 ft 446 kts 332°
2026-04-23 10:46 21.35548 114.70065 36846 ft 446 kts 332°
2026-04-23 10:47 21.41223 114.67379 36844 ft 446 kts 332°
2026-04-23 10:47 21.46872 114.64702 36849 ft 446 kts 332°
2026-04-23 10:48 21.52555 114.62007 36853 ft 446 kts 332°
2026-04-23 10:48 21.58244 114.59307 36854 ft 447 kts 332°
2026-04-23 10:49 21.63933 114.56604 36854 ft 447 kts 332°
2026-04-23 10:49 21.68667 114.54354 36853 ft 447 kts 332°
2026-04-23 10:50 21.74369 114.51641 36857 ft 448 kts 332°
2026-04-23 10:50 21.80993 114.48487 36859 ft 448 kts 332°
2026-04-23 10:51 21.85778 114.46206 36860 ft 449 kts 332°
2026-04-23 10:51 21.91452 114.43499 36861 ft 449 kts 332°
2026-04-23 10:52 21.97175 114.40766 36860 ft 450 kts 332°
2026-04-23 10:52 22.02899 114.38031 36866 ft 450 kts 332°
2026-04-23 10:53 22.08635 114.35288 36865 ft 450 kts 332°
2026-04-23 10:53 22.14328 114.32562 36863 ft 451 kts 331°
2026-04-23 10:54 22.20068 114.29812 36863 ft 451 kts 331°
2026-04-23 10:54 22.25823 114.27052 36867 ft 452 kts 331°
2026-04-23 10:55 22.31573 114.24292 36868 ft 452 kts 331°
2026-04-23 10:55 22.37329 114.21527 36873 ft 453 kts 331°
2026-04-23 10:56 22.43099 114.18752 36875 ft 453 kts 331°
2026-04-23 10:56 22.48861 114.15980 36872 ft 454 kts 331°
2026-04-23 10:57 22.54601 114.13215 36874 ft 454 kts 331°
2026-04-23 10:57 22.60330 114.10310 36881 ft 454 kts 329°
2026-04-23 10:58 22.66031 114.07347 36885 ft 455 kts 329°
2026-04-23 10:58 22.71720 114.04410 36890 ft 455 kts 329°
2026-04-23 10:59 22.77445 114.01463 36896 ft 455 kts 329°
2026-04-23 10:59 22.83150 113.98525 36883 ft 453 kts 329°
2026-04-23 11:00 22.88837 113.95592 36888 ft 452 kts 329°
2026-04-23 11:00 22.94518 113.92648 36890 ft 451 kts 328°
2026-04-23 11:01 23.00179 113.89697 36898 ft 451 kts 328°
2026-04-23 11:01 23.05849 113.86741 36908 ft 450 kts 328°
2026-04-23 11:02 23.11597 113.84048 36906 ft 455 kts 334°
2026-04-23 11:02 23.17557 113.81722 36907 ft 454 kts 333°
2026-04-23 11:03 23.23490 113.79385 36916 ft 453 kts 333°
2026-04-23 11:03 23.29430 113.77044 36915 ft 453 kts 333°
2026-04-23 11:04 23.35353 113.74710 36924 ft 453 kts 333°
2026-04-23 11:04 23.41245 113.72387 36930 ft 452 kts 333°
2026-04-23 11:05 23.47158 113.70053 36927 ft 452 kts 333°
2026-04-23 11:05 23.53070 113.67717 36932 ft 451 kts 332°
2026-04-23 11:06 23.61923 113.64215 36932 ft 451 kts 332°
2026-04-23 11:07 23.67810 113.61884 36937 ft 449 kts 332°
2026-04-23 11:07 23.73650 113.59568 36934 ft 449 kts 332°
2026-04-23 11:08 23.79525 113.57236 36937 ft 449 kts 332°
2026-04-23 11:08 23.85410 113.54899 36941 ft 449 kts 331°
2026-04-23 11:09 23.91278 113.52566 36947 ft 449 kts 331°
2026-04-23 11:09 23.97154 113.50228 36956 ft 449 kts 331°
2026-04-23 11:10 24.03010 113.47895 36954 ft 447 kts 331°
2026-04-23 11:10 24.08845 113.45568 36945 ft 446 kts 330°
2026-04-23 11:11 24.14702 113.43279 36952 ft 449 kts 334°
2026-04-23 11:11 24.20918 113.41901 36955 ft 464 kts 345°
2026-04-23 11:12 24.27474 113.41797 36961 ft 476 kts 353°
2026-04-23 11:12 24.34054 113.42017 36971 ft 476 kts 352°
2026-04-23 11:13 24.40677 113.42206 36975 ft 477 kts 352°
2026-04-23 11:13 24.47324 113.42379 36966 ft 478 kts 352°
2026-04-23 11:14 24.53947 113.42567 36966 ft 475 kts 352°
2026-04-23 11:14 24.60571 113.42755 36965 ft 476 kts 352°
2026-04-23 11:15 24.67206 113.42943 36971 ft 475 kts 352°
2026-04-23 11:15 24.73769 113.43130 36981 ft 475 kts 351°
2026-04-23 11:16 24.80415 113.43318 36977 ft 474 kts 351°
2026-04-23 11:16 24.86976 113.43503 36971 ft 474 kts 351°
2026-04-23 11:17 24.93578 113.43692 36970 ft 474 kts 351°
2026-04-23 11:17 25.00168 113.43879 36979 ft 474 kts 351°
2026-04-23 11:18 25.06765 113.44066 36985 ft 474 kts 351°
2026-04-23 11:18 25.13366 113.44254 36991 ft 474 kts 351°
2026-04-23 11:19 25.19959 113.44444 36984 ft 472 kts 351°
2026-04-23 11:19 25.26508 113.44632 36990 ft 470 kts 351°
2026-04-23 11:20 25.32993 113.44824 36989 ft 470 kts 350°
2026-04-23 11:20 25.39543 113.45005 36993 ft 470 kts 350°
2026-04-23 11:21 25.46070 113.45194 36988 ft 468 kts 350°
2026-04-23 11:21 25.52586 113.45378 37007 ft 470 kts 350°
2026-04-23 11:22 25.59142 113.45564 37005 ft 469 kts 350°
2026-04-23 11:22 25.65663 113.45753 37007 ft 469 kts 350°
2026-04-23 11:23 25.72190 113.45941 37007 ft 469 kts 350°
2026-04-23 11:23 25.78666 113.46128 37009 ft 469 kts 349°
2026-04-23 11:24 25.85192 113.46316 37004 ft 469 kts 349°
2026-04-23 11:24 25.91659 113.46177 37010 ft 463 kts 346°
2026-04-23 11:25 25.98113 113.45930 37016 ft 464 kts 346°
2026-04-23 11:25 26.04565 113.45687 37016 ft 464 kts 346°
2026-04-23 11:26 26.11031 113.45439 37014 ft 464 kts 346°
2026-04-23 11:26 26.17482 113.45194 37012 ft 464 kts 345°
2026-04-23 11:27 26.23939 113.44945 37013 ft 464 kts 345°
2026-04-23 11:27 26.30354 113.44699 37006 ft 464 kts 345°
2026-04-23 11:28 26.36821 113.44451 37007 ft 465 kts 345°
2026-04-23 11:28 26.43288 113.44204 37009 ft 464 kts 345°
2026-04-23 11:29 26.49729 113.43956 36997 ft 462 kts 345°
2026-04-23 11:29 26.56166 113.43709 36990 ft 462 kts 345°
2026-04-23 11:30 26.62604 113.43459 37011 ft 465 kts 345°
2026-04-23 11:30 26.69096 113.43209 37009 ft 466 kts 345°
2026-04-23 11:31 26.75583 113.42962 37011 ft 467 kts 345°
2026-04-23 11:31 26.81994 113.42722 37017 ft 462 kts 345°
2026-04-23 11:32 26.88484 113.42464 37011 ft 468 kts 345°
2026-04-23 11:32 26.94982 113.42217 37010 ft 466 kts 345°
2026-04-23 11:33 27.01471 113.41967 37012 ft 467 kts 344°
2026-04-23 11:33 27.07930 113.41718 37013 ft 467 kts 344°
2026-04-23 11:34 27.14425 113.41467 37013 ft 467 kts 344°
2026-04-23 11:34 27.20924 113.41215 37012 ft 466 kts 344°
2026-04-23 11:35 27.27413 113.40964 37010 ft 466 kts 344°
2026-04-23 11:35 27.33894 113.40717 37008 ft 467 kts 345°
2026-04-23 11:36 27.40412 113.40814 37003 ft 472 kts 347°
2026-04-23 11:36 27.46979 113.41013 36994 ft 471 kts 347°
2026-04-23 11:37 27.52435 113.41138 36989 ft 471 kts 347°
2026-04-23 11:37 27.60105 113.41290 37002 ft 471 kts 346°
2026-04-23 11:38 27.66651 113.41492 36995 ft 480 kts 351°
2026-04-23 11:38 27.73310 113.42098 36998 ft 481 kts 350°
2026-04-23 11:39 27.79989 113.42689 37003 ft 482 kts 350°
2026-04-23 11:39 27.85557 113.43182 37010 ft 483 kts 350°
2026-04-23 11:40 27.92266 113.43776 37018 ft 485 kts 350°
2026-04-23 11:40 27.99004 113.44365 37028 ft 486 kts 350°
2026-04-23 11:41 28.05730 113.44954 37016 ft 484 kts 350°
2026-04-23 11:41 28.12443 113.45517 37015 ft 483 kts 349°
2026-04-23 11:42 28.19151 113.45978 37017 ft 482 kts 349°
2026-04-23 11:42 28.25857 113.46443 37017 ft 483 kts 349°
2026-04-23 11:43 28.32526 113.46921 37013 ft 483 kts 349°
2026-04-23 11:43 28.39235 113.47405 37016 ft 482 kts 349°
2026-04-23 11:44 28.45930 113.47885 37005 ft 482 kts 349°
2026-04-23 11:44 28.52637 113.48363 37011 ft 482 kts 349°
2026-04-23 11:45 28.59337 113.48841 37011 ft 482 kts 349°
2026-04-23 11:45 28.66036 113.49320 37009 ft 482 kts 349°
2026-04-23 11:46 28.72697 113.49798 37011 ft 482 kts 349°
2026-04-23 11:46 28.79410 113.50278 37010 ft 483 kts 349°
2026-04-23 11:47 28.86121 113.50760 37005 ft 482 kts 349°
2026-04-23 11:47 28.92825 113.51242 37004 ft 482 kts 349°
2026-04-23 11:48 28.99497 113.51719 37004 ft 483 kts 349°
2026-04-23 11:48 29.06195 113.52204 37008 ft 482 kts 349°
2026-04-23 11:49 29.12885 113.52686 37004 ft 482 kts 349°
2026-04-23 11:49 29.19583 113.53170 37013 ft 481 kts 349°
2026-04-23 11:50 29.26276 113.53652 37013 ft 482 kts 349°
2026-04-23 11:50 29.32976 113.54172 37021 ft 484 kts 350°
2026-04-23 11:51 29.39689 113.54771 37013 ft 483 kts 351°
2026-04-23 11:51 29.46330 113.55358 37013 ft 481 kts 351°
2026-04-23 11:52 29.53012 113.55937 37009 ft 481 kts 351°
2026-04-23 11:52 29.59685 113.56516 37011 ft 481 kts 351°
2026-04-23 11:53 29.66372 113.57097 37012 ft 480 kts 351°
2026-04-23 11:53 29.72991 113.57672 37013 ft 480 kts 351°
2026-04-23 11:54 29.79652 113.58253 37021 ft 480 kts 351°
2026-04-23 11:54 29.86316 113.58835 37017 ft 479 kts 351°
2026-04-23 11:55 29.93000 113.59742 37016 ft 492 kts 360°
2026-04-23 11:55 29.99668 113.62120 37012 ft 511 kts 12°
2026-04-23 11:56 30.06160 113.65369 37010 ft 511 kts 13°
2026-04-23 11:56 30.12693 113.68616 37011 ft 511 kts 13°
2026-04-23 11:57 30.19226 113.71874 37013 ft 511 kts 13°
2026-04-23 11:57 30.25746 113.75137 37013 ft 510 kts 13°
2026-04-23 11:58 30.32261 113.78402 37011 ft 510 kts 13°
2026-04-23 11:58 30.38764 113.81666 37013 ft 509 kts 13°
2026-04-23 11:59 30.45266 113.84934 37012 ft 509 kts 13°
2026-04-23 11:59 30.51757 113.88201 37012 ft 508 kts 14°
2026-04-23 12:00 30.58254 113.91476 37011 ft 508 kts 14°
2026-04-23 12:00 30.64690 113.94725 37012 ft 507 kts 14°
2026-04-23 12:01 30.71162 113.98003 37017 ft 508 kts 15°
2026-04-23 12:01 30.77592 114.01468 37020 ft 509 kts 16°
2026-04-23 12:02 30.83998 114.04969 37021 ft 508 kts 16°
2026-04-23 12:02 30.90398 114.08446 37013 ft 507 kts 16°
2026-04-23 12:03 30.96791 114.11914 37021 ft 506 kts 16°
2026-04-23 12:03 31.03134 114.15360 37011 ft 506 kts 16°
2026-04-23 12:04 31.09512 114.18827 37015 ft 505 kts 16°
2026-04-23 12:04 31.15878 114.22291 37013 ft 505 kts 16°
2026-04-23 12:05 31.22244 114.25760 37020 ft 504 kts 16°
2026-04-23 12:05 31.28594 114.29226 37037 ft 503 kts 16°
2026-04-23 12:06 31.35040 114.32152 37032 ft 488 kts
2026-04-23 12:06 31.44882 114.33413 37037 ft 467 kts 351°
2026-04-23 12:07 31.51340 114.33609 37038 ft 467 kts 351°
2026-04-23 12:07 31.57842 114.33809 37041 ft 466 kts 351°
2026-04-23 12:08 31.64330 114.34003 37035 ft 466 kts 352°
2026-04-23 12:08 31.70813 114.34196 37036 ft 465 kts 352°
2026-04-23 12:09 31.77291 114.34390 37041 ft 465 kts 352°
2026-04-23 12:09 31.83756 114.34587 37044 ft 465 kts 352°
2026-04-23 12:10 31.90198 114.34781 37051 ft 465 kts 352°
2026-04-23 12:10 31.96662 114.34975 37055 ft 465 kts 352°
2026-04-23 12:11 32.03124 114.35171 37056 ft 464 kts 352°
2026-04-23 12:11 32.09582 114.35366 37053 ft 464 kts 353°
2026-04-23 12:12 32.16035 114.35562 37058 ft 464 kts 353°
2026-04-23 12:12 32.22484 114.35758 37055 ft 463 kts 353°
2026-04-23 12:13 32.28933 114.36034 37057 ft 466 kts 355°
2026-04-23 12:13 32.35415 114.36679 37053 ft 466 kts 356°
2026-04-23 12:14 32.41835 114.37313 37050 ft 465 kts 356°
2026-04-23 12:14 32.48291 114.37911 37046 ft 464 kts 356°
2026-04-23 12:15 32.54737 114.38498 37043 ft 463 kts 356°
2026-04-23 12:15 32.61156 114.39083 37041 ft 463 kts 356°
2026-04-23 12:16 32.67575 114.39671 37037 ft 462 kts 356°
2026-04-23 12:16 32.73985 114.40270 37038 ft 462 kts 356°
2026-04-23 12:17 32.80346 114.40865 37034 ft 461 kts 356°
2026-04-23 12:17 32.86743 114.41463 37034 ft 460 kts 356°
2026-04-23 12:18 32.93135 114.42062 37034 ft 460 kts 356°
2026-04-23 12:18 32.99514 114.42660 37028 ft 460 kts 356°
2026-04-23 12:19 33.05899 114.43259 37030 ft 459 kts 357°
2026-04-23 12:19 33.12275 114.43859 37032 ft 459 kts 357°
2026-04-23 12:20 33.18646 114.44459 37033 ft 459 kts 357°
2026-04-23 12:20 33.24976 114.45055 37039 ft 459 kts 357°
2026-04-23 12:21 33.31351 114.45657 37036 ft 459 kts 357°
2026-04-23 12:21 33.37717 114.46255 37037 ft 459 kts 357°
2026-04-23 12:22 33.44087 114.46855 37039 ft 458 kts 357°
2026-04-23 12:22 33.50452 114.47455 37036 ft 458 kts 357°
2026-04-23 12:23 33.56770 114.48052 37040 ft 458 kts 357°
2026-04-23 12:23 33.63124 114.48653 37038 ft 457 kts 357°
2026-04-23 12:24 33.69469 114.49246 37037 ft 457 kts 357°
2026-04-23 12:24 33.75809 114.49838 37034 ft 457 kts 357°
2026-04-23 12:25 33.82143 114.50432 37029 ft 456 kts 357°
2026-04-23 12:25 33.88484 114.51029 37028 ft 456 kts 358°
2026-04-23 12:26 33.94773 114.51622 37029 ft 455 kts 358°
2026-04-23 12:26 34.00026 114.52118 37026 ft 455 kts 358°
2026-04-23 12:27 34.07409 114.52816 37024 ft 455 kts 358°
2026-04-23 12:27 34.12652 114.53313 37026 ft 454 kts 358°
2026-04-23 12:28 34.18958 114.53911 37022 ft 454 kts 358°
2026-04-23 12:28 34.25256 114.54509 37017 ft 454 kts 358°
2026-04-23 12:29 34.31560 114.55108 37019 ft 454 kts 358°
2026-04-23 12:29 34.37864 114.55708 37021 ft 454 kts 358°
2026-04-23 12:30 34.44117 114.56305 37019 ft 453 kts 358°
2026-04-23 12:30 34.50409 114.56904 37014 ft 453 kts 358°
2026-04-23 12:31 34.56703 114.57500 37018 ft 453 kts 358°
2026-04-23 12:31 34.62996 114.58096 37019 ft 453 kts 358°
2026-04-23 12:32 34.69281 114.58693 37020 ft 453 kts 358°
2026-04-23 12:32 34.75584 114.59293 37022 ft 453 kts 358°
2026-04-23 12:33 34.81864 114.59892 37023 ft 453 kts 358°
2026-04-23 12:33 34.88149 114.60492 37022 ft 453 kts 359°
2026-04-23 12:34 34.94426 114.61093 37020 ft 452 kts 359°
2026-04-23 12:34 35.00661 114.61690 37020 ft 452 kts 359°
2026-04-23 12:35 35.06935 114.62292 37018 ft 452 kts 359°
2026-04-23 12:35 35.13207 114.62894 37015 ft 451 kts 359°
2026-04-23 12:36 35.19473 114.63497 37015 ft 451 kts 359°
2026-04-23 12:36 35.25692 114.64097 37014 ft 451 kts 359°
2026-04-23 12:37 35.31946 114.64701 37009 ft 450 kts 359°
2026-04-23 12:37 35.38193 114.65305 37006 ft 450 kts 359°
2026-04-23 12:38 35.44440 114.65910 37006 ft 449 kts 359°
2026-04-23 12:38 35.50675 114.66514 37002 ft 449 kts 359°
2026-04-23 12:39 35.56865 114.67116 37001 ft 449 kts 359°
2026-04-23 12:39 35.63085 114.67720 36997 ft 448 kts 359°
2026-04-23 12:40 35.69304 114.68326 36996 ft 448 kts 360°
2026-04-23 12:40 35.75519 114.68933 36996 ft 447 kts 360°
2026-04-23 12:41 35.81728 114.69539 36989 ft 447 kts 360°
2026-04-23 12:41 35.87927 114.70146 36985 ft 447 kts 360°
2026-04-23 12:42 35.94082 114.70750 36985 ft 446 kts 360°
2026-04-23 12:42 36.00272 114.71358 36982 ft 446 kts 360°
2026-04-23 12:43 36.06464 114.71967 36979 ft 446 kts
2026-04-23 12:43 36.12648 114.72574 36978 ft 446 kts
2026-04-23 12:44 36.18839 114.73178 36975 ft 446 kts
2026-04-23 12:44 36.25027 114.73784 36975 ft 446 kts
2026-04-23 12:45 36.31211 114.74394 36973 ft 445 kts
2026-04-23 12:45 36.37394 114.74953 36974 ft 443 kts 356°
2026-04-23 12:46 36.43548 114.74728 36972 ft 441 kts 354°
2026-04-23 12:46 36.49642 114.74461 36969 ft 441 kts 354°
2026-04-23 12:47 36.55772 114.74190 36964 ft 441 kts 354°
2026-04-23 12:47 36.61907 114.73912 36959 ft 440 kts 354°
2026-04-23 12:48 36.68027 114.73633 36956 ft 440 kts 354°
2026-04-23 12:48 36.74165 114.73517 36951 ft 443 kts
2026-04-23 12:49 36.80249 114.74966 36946 ft 449 kts 14°
2026-04-23 12:49 36.86028 114.78048 36942 ft 453 kts 21°
2026-04-23 12:50 36.91708 114.81338 36945 ft 452 kts 21°
2026-04-23 12:50 36.97416 114.84651 36946 ft 452 kts 21°
2026-04-23 12:51 37.03129 114.87982 36947 ft 452 kts 21°
2026-04-23 12:51 37.08834 114.91316 36944 ft 452 kts 21°
2026-04-23 12:52 37.14499 114.94631 36941 ft 452 kts 21°
2026-04-23 12:52 37.20191 114.97969 36943 ft 451 kts 21°
2026-04-23 12:53 37.22416 114.99275 36941 ft 451 kts 21°
2026-04-23 12:58 37.23778 115.00075 36940 ft 451 kts 21°
2026-04-23 12:59 37.29471 115.03422 36936 ft 451 kts 21°
2026-04-23 12:59 37.35150 115.06766 36934 ft 451 kts 21°
2026-04-23 13:00 37.40791 115.10094 36932 ft 450 kts 21°
2026-04-23 13:00 37.46465 115.13446 36913 ft 449 kts 21°
2026-04-23 13:01 37.52129 115.16798 36929 ft 449 kts 21°
2026-04-23 13:01 37.57805 115.20163 36922 ft 449 kts 22°
2026-04-23 13:02 37.63416 115.23495 36925 ft 449 kts 22°
2026-04-23 13:02 37.69066 115.26856 36916 ft 449 kts 22°
2026-04-23 13:03 37.74711 115.30220 36920 ft 449 kts 22°
2026-04-23 13:03 37.80565 115.32794 36918 ft 442 kts
2026-04-23 13:04 37.86655 115.33197 36915 ft 436 kts 352°
2026-04-23 13:04 37.92674 115.32342 36916 ft 435 kts 351°
2026-04-23 13:05 37.98700 115.31506 36912 ft 436 kts 351°
2026-04-23 13:05 38.04647 115.30671 36913 ft 436 kts 351°
2026-04-23 13:06 38.10654 115.29819 36675 ft 432 kts 351°
2026-04-23 13:06 38.13643 115.29379 36164 ft 430 kts 351°
2026-04-23 13:06 38.16616 115.28934 35530 ft 430 kts 352°
2026-04-23 13:07 38.19591 115.28487 34870 ft 430 kts 352°
2026-04-23 13:07 38.22555 115.28043 34222 ft 429 kts 353°
2026-04-23 13:07 38.25529 115.27599 33486 ft 429 kts 353°
2026-04-23 13:07 38.28499 115.27158 32657 ft 431 kts 354°
2026-04-23 13:08 38.31486 115.26715 31811 ft 432 kts 354°
2026-04-23 13:08 38.34479 115.26272 30989 ft 434 kts 354°
2026-04-23 13:08 38.37487 115.25826 30178 ft 435 kts 354°
2026-04-23 13:08 38.40486 115.25381 29465 ft 432 kts 354°
2026-04-23 13:09 38.43459 115.24940 28795 ft 428 kts 354°
2026-04-23 13:09 38.46402 115.24502 28127 ft 424 kts 354°
2026-04-23 13:09 38.49279 115.24074 27478 ft 420 kts 354°
2026-04-23 13:09 38.52171 115.23644 26825 ft 417 kts 354°
2026-04-23 13:10 38.55051 115.23417 26177 ft 413 kts
2026-04-23 13:10 38.57865 115.24046 25546 ft 410 kts 17°
2026-04-23 13:10 38.60445 115.25554 24906 ft 408 kts 32°
2026-04-23 13:10 38.62625 115.27858 24283 ft 407 kts 47°
2026-04-23 13:11 38.64252 115.30805 23670 ft 406 kts 62°
2026-04-23 13:11 38.65427 115.34082 23023 ft 404 kts 65°
2026-04-23 13:11 38.66542 115.37368 22391 ft 401 kts 65°
2026-04-23 13:11 38.67661 115.40610 21768 ft 398 kts 64°
2026-04-23 13:12 38.68805 115.43836 21145 ft 395 kts 64°
2026-04-23 13:12 38.69952 115.47017 20541 ft 392 kts 64°
2026-04-23 13:12 38.71134 115.50143 19940 ft 389 kts 59°
2026-04-23 13:12 38.72587 115.53037 19354 ft 385 kts 51°
2026-04-23 13:13 38.74316 115.55628 18788 ft 381 kts 44°
2026-04-23 13:13 38.76188 115.58012 18228 ft 378 kts 43°
2026-04-23 13:13 38.78041 115.60391 17631 ft 375 kts 43°
2026-04-23 13:13 38.79854 115.62729 17067 ft 372 kts 43°
2026-04-23 13:14 38.81666 115.65070 16505 ft 368 kts 43°
2026-04-23 13:14 38.83463 115.67393 15945 ft 365 kts 43°
2026-04-23 13:14 38.85246 115.69696 15403 ft 362 kts 43°
2026-04-23 13:14 38.87010 115.71977 14878 ft 359 kts 43°
2026-04-23 13:15 38.88765 115.74248 14349 ft 356 kts 43°
2026-04-23 13:15 38.90504 115.76498 13838 ft 354 kts 43°
2026-04-23 13:15 38.91649 115.77982 13479 ft 352 kts 43°
2026-04-23 13:15 38.93366 115.80205 12891 ft 350 kts 43°
2026-04-23 13:16 38.95073 115.82419 12333 ft 348 kts 43°
2026-04-23 13:16 38.96771 115.84621 11767 ft 346 kts 43°
2026-04-23 13:16 38.98468 115.86825 11233 ft 344 kts 44°
2026-04-23 13:16 39.00118 115.88970 10983 ft 340 kts 44°
2026-04-23 13:17 39.01794 115.91149 10915 ft 344 kts 44°
2026-04-23 13:17 39.03473 115.93334 10903 ft 343 kts 44°
2026-04-23 13:17 39.05147 115.95515 10903 ft 343 kts 44°
2026-04-23 13:17 39.06828 115.97706 10906 ft 343 kts 44°
2026-04-23 13:18 39.08502 115.99890 10903 ft 343 kts 44°
2026-04-23 13:18 39.10179 116.02079 10905 ft 343 kts 44°